Velovelo
Português Nederlands 日本語 中文
Español English čeština slovenčina
русский italiano polski norsk
français Deutsch svenska عربي
 
 previous page
 Send to a friend
 Print article
 ---> Charly Bérard 2008 : Résultats du Parcours 60 km

Résultats électroniques réalisés par KMS informatique (08 92 68 33 13 - 0,34€/mn) notre partenaire chronométrage.

ClassNomPrénomCatC.catTemps ....Moy ....
1 ROCCA BRUNO G 1 01:26:27 41.64
2 CHAMPOUSSIN THIERRY G 2 01:27:36 41.10
3 JOIRIS FRANCK G 3 01:30:14 39.90
4 MORIN CHRISTOPHE F 1 01:30:18 39.87
5 OPERTO STEPHANE G 4 01:31:21 39.41
6 TACHOIRES JEROME G 5 01:36:05 37.47
7 ZANNETACCI BRUNO H 1 01:36:54 37.15
8 GIORDANENGO STEPHANE F 2 01:37:30 36.92
9 LABAUME CHRISTOPHE G 6 01:38:13 36.65
10 D’ALESSANDRO FABIO F 3 01:38:15 36.64
11 BUDELOT YANNICK F 4 01:38:33 36.53
12 COUAVOUX ROLAND G 7 01:39:54 36.04
13 AUDAUT HERVE G 8 01:41:12 35.57
14 CHABOT GILLES J 1 01:44:01 34.61
15 HERBET LUC F 5 01:44:07 34.58
16 LE-LIBOUX RICHARD G 9 01:44:42 34.38
17 MAIRE PHILIPPE G 10 01:44:54 34.32
18 BERARD MAXIME F 6 01:47:16 33.56
19 DEWERSE RICHARD J 2 01:49:17 32.94
20 CROUIN MICKAEL F 7 01:51:02 32.42
21 CROUIN CHRISTIAN H 2 01:53:44 31.65
22 LAURENS PATRICK H 3 01:53:49 31.63
23 JANCZAK DANIEL J 3 01:56:33 30.89
24 JOUSSELME DIDIER G 11 01:56:59 30.77
25 DUPARC OLIVIER H 4 01:57:09 30.73
26 BERTRAND DIDIER G 12 01:58:12 30.46
27 PIQUET LUCAS H 5 01:58:16 30.44
28 NICOLAI JOSE H 6 01:58:19 30.43
29 SCHULLER FRANCK F 8 01:59:14 30.19
30 CURZI MICHEL J 4 01:59:34 30.11
31 LE-GALL ALAIN H 7 01:59:53 30.03
32 BAUDREY SERGE H 8 02:00:34 29.86
33 VALDY CHRISTOPHE G 13 02:01:36 29.61
34 MARCHETTI DANIEL F 9 02:03:09 29.23
35 PAVLICIC BERNARD G 14 02:03:20 29.19
36 BOSCHETTI JEAN-PIERRE H 9 02:03:27 29.16
37 LEPLOMB ERIC F 10 02:04:05 29.01
38 DALLET LAURENT G 15 02:04:55 28.82
39 CIANCI ROLAND H 10 02:05:02 28.79
40 COTO ELISABETH B 1 02:06:52 28.38
41 POULARD ELISABETH B 2 02:06:53 28.37
42 CASTELLI OLIVIER F 11 02:06:55 28.37
43 INCONNU 683 G 16 02:07:07 28.32
44 FRATERNO DAMIEN F 12 02:07:18 28.28
45 GEOFFROY MICHEL K 1 02:07:25 28.25
46 RIBES CHRISTOPHE G 17 02:09:25 27.82
47 BERNARDI FERNAND K 2 02:09:34 27.78
48 BALDINI JEAN-MARC H 11 02:10:31 27.58
49 LE-BELICARD JEAN-JACQUES J 5 02:11:47 27.32
50 STUYCK MICHEL K 3 02:13:09 27.04
51 PENE ANDREA K 4 02:14:04 26.85
52 GAGNARD FRANCOIS K 5 02:14:07 26.84
53 MEREDIYH MARICA D 1 02:14:14 26.82
54 BOUDET MICHEL J 6 02:14:18 26.81
55 SASSONE EUGENE G 18 02:16:50 26.31
56 GAIOFATTO-JAUNEAU FRANCOISE B 3 02:16:59 26.28
57 ISNARD LEANDRE J 7 02:17:05 26.26
58 DENIS-PERALDI LAURENT G 19 02:17:39 26.15
59 MAIRE ROGER K 6 02:18:03 26.08
60 SIBILLE FREDERIC F 13 02:23:04 25.16
61 MAZZA ERIC G 20 02:24:23 24.93
62 RUYS SABRINA B 4 02:24:28 24.92
63 CORLEONI ROGER J 8 02:24:32 24.91
64 MELI DOMINIQUE H 12 02:25:02 24.82
65 BERTON GERARD G 21 02:30:19 23.95
66 GHISELLINI ALAIN J 9 02:30:21 23.94
67 OCCHIOLINI JACQUELINE D 2 02:32:15 23.65
68 CENSIER MAUD B 5 02:33:56 23.39
69 BELEIL BRUNO G 22 02:39:14 22.61
70 MAIRE CLAUDE D 3 02:39:16 22.60
71 VITRE NOEL K 7 02:42:21 22.17
72 STUPPA PIERRE G 23 02:43:15 22.05
73 OCCHIOLINI LYDIE A 1 02:43:44 21.99
74 BARALE JANINE D 4 02:59:02 20.11
75 THOMAS JEROME G 24 03:01:12 19.87

Voir -> Charly Bérard 2008 : Résultats du Parcours 90 km

To the top 









To the top  
 Private area   Authors-Copyright: Click here to read !